Location: Bühlhof
(48.7849°N, 8.6361°E)
Time: 07:04:17
(UTC+00:00)

Meteor 1-28 Rocket - Pass Details

Date: 19 January 2026
Orbit: 427 x 437 km, 97.6° (Epoch: 18 February)

Event Time Altitude Azimuth Distance (km) Brightness Sun altitude
Rises 16:53:42 0° 9° (N) 2,406 6.3 -8.4°
Reaches altitude 10° 16:55:44 10° 4° (N) 1,534 5.4 -8.7°
Maximum altitude 16:58:56 53° 287° (WNW) 537 3.6 -9.2°
Drops below altitude 10° 17:02:07 10° 210° (SSW) 1,523 6.4 -9.7°
Sets 17:04:08 0° 205° (SSW) 2,386 7.3 -10.0°
